KINDAKUN POINT, BC current weather conditions

sailwx.info

Wind from 250 at 10 knots

Air temperature 6.0° C
Dewpoint 2.0° C

Last reported at 2016-Feb-06 11:00 UTC.
Time now 2016-Feb-06 13:30 UTC

Location: N 53°19' W 132°46'.
View on Google Maps.

See reports from other nearby stations

  
Tides and Currents Weather Stations Pressure Air Temp Water Temp Dewpoint Dewpoint Depression Visibility Wind Speed Wind Dir Waves Ship Positions
date/time (UTC)wind fromknots sea level pressurealtimeterstation pressurevisibilityair tempwater tempwave heightnotes
2016-Feb-06 12:00 270 18 gusting 27 5.0
2016-Feb-06 11:00 250 10 6.0
2016-Feb-06 10:00 270 18 6.0
2016-Feb-06 09:00 280 8 5.0
2016-Feb-06 08:00 260 11 5.0
2016-Feb-06 07:00 320 8 5.0
2016-Feb-06 06:00 240 15 gusting 23 5.0
2016-Feb-06 05:00 190 3 5.0
2016-Feb-06 04:00 160 5 5.0
2016-Feb-06 03:00 220 3 5.0
2016-Feb-06 02:00 210 12 gusting 18 6.0
2016-Feb-06 01:00 300 13 5.0
2016-Feb-06 00:00 270 11 7.0
2016-Feb-05 23:00 340 3 6.0
2016-Feb-05 22:00 310 10 6.0
2016-Feb-05 21:00 330 1 6.0
2016-Feb-05 20:00 300 11 6.0
2016-Feb-05 19:00 300 7 7.0
2016-Feb-05 18:00 320 7 7.0
2016-Feb-05 17:00 290 14 7.0
2016-Feb-05 16:00 300 12 7.0
2016-Feb-05 15:00 330 5 7.0
2016-Feb-05 14:00 310 9 7.0
2016-Feb-05 13:00 300 9 7.0
2016-Feb-05 12:00 310 13 7.0
2016-Feb-05 11:00 320 11 7.0
2016-Feb-05 10:00 330 9 7.0
2016-Feb-05 09:00 330 13 7.0
2016-Feb-05 08:00 340 13 7.0
2016-Feb-05 07:00 320 11 7.0
2016-Feb-05 06:00 160 20 gusting 27 9.0
2016-Feb-05 05:00 160 24 gusting 31 9.0
2016-Feb-05 04:00 150 32 gusting 40 9.0
2016-Feb-05 03:00 150 34 gusting 43 9.0
2016-Feb-05 02:00 150 37 gusting 47 10.0
2016-Feb-05 01:00 150 35 gusting 45 10.0
2016-Feb-05 00:00 150 40 gusting 55 10.0
2016-Feb-04 23:00 150 41 gusting 55 9.0
2016-Feb-04 22:00 150 39 gusting 53 9.0
2016-Feb-04 21:00 160 33 gusting 42 9.0
2016-Feb-04 20:00 150 37 gusting 47 9.0
2016-Feb-04 19:00 150 38 gusting 47 9.0
2016-Feb-04 18:00 150 40 gusting 49 9.0
2016-Feb-04 17:00 150 40 gusting 47 9.0
2016-Feb-04 16:00 150 40 gusting 48 9.0
2016-Feb-04 15:00 150 36 gusting 44 8.0
2016-Feb-04 14:00 150 30 gusting 40 8.0
2016-Feb-04 13:00 150 33 gusting 41 7.0